• In Belarus
  • List of Countries
  • For 7 days
  • Water Temperature
  • Satellite Maps
  • Weather Map
  • Weather Widgets
  • user-avatar
    Login

    Hourly Weather Capotillo

    Today, 19 February, Monday

    Time Temperature Precipitation Wind Pressure Humidity
    00:00 +22°C° 0.1 mm 4 mps 762 mmHg 88%
    01:00 +22°C° 0.1 mm 4 mps 762 mmHg 88%
    02:00 +22°C° 0.1 mm 4 mps 762 mmHg 88%
    03:00 +22°C° 0.1 mm 4 mps 762 mmHg 89%
    04:00 +22°C° 0.1 mm 4 mps 762 mmHg 89%
    05:00 +22°C° 0.2 mm 4 mps 762 mmHg 89%
    06:00 +22°C° 0.2 mm 4 mps 763 mmHg 89%
    07:00 +23°C° 0.2 mm 4 mps 763 mmHg 89%
    08:00 +25°C° 0.2 mm 5 mps 764 mmHg 82%
    09:00 +27°C° 0.2 mm 5 mps 764 mmHg 75%
    10:00 +28°C° 0.2 mm 6 mps 764 mmHg 69%
    11:00 +29°C° 0.1 mm 6 mps 764 mmHg 64%
    12:00 +30°C° 0.1 mm 6 mps 763 mmHg 59%
    13:00 +32°C° 0.1 mm 6 mps 763 mmHg 55%
    14:00 +30°C° 0 mm 5 mps 762 mmHg 57%
    15:00 +30°C° 0 mm 5 mps 762 mmHg 59%
    16:00 +29°C° 0 mm 5 mps 762 mmHg 62%
    17:00 +28°C° 0.1 mm 5 mps 762 mmHg 68%
    18:00 +26°C° 0.1 mm 5 mps 762 mmHg 73%
    19:00 +25°C° 0.1 mm 5 mps 763 mmHg 79%
    20:00 +25°C° 0.1 mm 5 mps 763 mmHg 81%
    21:00 +23°C° 0.1 mm 5 mps 763 mmHg 82%
    22:00 +23°C° 0.1 mm 5 mps 764 mmHg 83%
    23:00 +23°C° 0 mm 5 mps 764 mmHg 84%

    Tomorrow, 20 February, Tuesday

    Time Temperature Precipitation Wind Pressure Humidity
    00:00 +22°C° 0 mm 5 mps 763 mmHg 85%
    01:00 +22°C° 0 mm 5 mps 763 mmHg 86%
    02:00 +22°C° 0.1 mm 5 mps 763 mmHg 86%
    03:00 +22°C° 0.1 mm 5 mps 763 mmHg 87%
    04:00 +22°C° 0.1 mm 4 mps 763 mmHg 87%
    05:00 +22°C° 0.1 mm 4 mps 763 mmHg 86%
    06:00 +23°C° 0.1 mm 5 mps 763 mmHg 86%
    07:00 +23°C° 0.1 mm 5 mps 764 mmHg 85%
    08:00 +25°C° 0.1 mm 5 mps 764 mmHg 78%
    09:00 +27°C° 0.1 mm 5 mps 765 mmHg 71%
    10:00 +29°C° 0.1 mm 6 mps 765 mmHg 65%
    11:00 +29°C° 0.1 mm 6 mps 764 mmHg 62%
    12:00 +30°C° 0.1 mm 6 mps 764 mmHg 60%
    13:00 +30°C° 0.1 mm 6 mps 763 mmHg 57%
    14:00 +30°C° 0.1 mm 6 mps 763 mmHg 59%
    15:00 +29°C° 0.1 mm 6 mps 763 mmHg 61%
    16:00 +29°C° 0.1 mm 6 mps 762 mmHg 63%
    17:00 +27°C° 0.1 mm 6 mps 763 mmHg 68%
    18:00 +26°C° 0.1 mm 5 mps 763 mmHg 74%
    19:00 +23°C° 0.1 mm 5 mps 763 mmHg 79%
    20:00 +23°C° 0.1 mm 5 mps 764 mmHg 81%
    21:00 +23°C° 0.1 mm 5 mps 764 mmHg 82%
    22:00 +22°C° 0.1 mm 5 mps 765 mmHg 83%
    23:00 +22°C° 0.1 mm 5 mps 764 mmHg 84%

    Day after tomorrow, 21 February, Wednesday

    Time Temperature Precipitation Wind Pressure Humidity
    00:00 +22°C° 0.1 mm 5 mps 764 mmHg 85%
    01:00 +22°C° 0.1 mm 5 mps 764 mmHg 86%
    02:00 +22°C° 0 mm 5 mps 763 mmHg 86%
    03:00 +22°C° 0 mm 5 mps 763 mmHg 87%
    04:00 +21°C° 0 mm 5 mps 763 mmHg 87%
    05:00 +22°C° 0.1 mm 5 mps 763 mmHg 86%
    06:00 +22°C° 0.1 mm 5 mps 763 mmHg 86%
    07:00 +22°C° 0.1 mm 5 mps 764 mmHg 85%
    08:00 +25°C° 0.3 mm 5 mps 764 mmHg 80%
    09:00 +26°C° 0.3 mm 5 mps 764 mmHg 76%
    10:00 +28°C° 0.3 mm 5 mps 765 mmHg 71%
    11:00 +27°C° 0.7 mm 5 mps 764 mmHg 73%
    12:00 +27°C° 0.7 mm 5 mps 764 mmHg 75%
    13:00 +27°C° 0.7 mm 4 mps 763 mmHg 77%
    14:00 +27°C° 0.5 mm 5 mps 763 mmHg 74%
    15:00 +28°C° 0.5 mm 5 mps 762 mmHg 72%
    16:00 +28°C° 0.5 mm 5 mps 762 mmHg 70%
    17:00 +27°C° 0.4 mm 5 mps 762 mmHg 74%
    18:00 +26°C° 0.4 mm 5 mps 763 mmHg 78%
    19:00 +23°C° 0.4 mm 5 mps 763 mmHg 83%
    20:00 +23°C° 0.3 mm 5 mps 764 mmHg 84%
    21:00 +23°C° 0.3 mm 5 mps 764 mmHg 85%
    22:00 +22°C° 0.3 mm 5 mps 764 mmHg 87%
    23:00 +22°C° 0.1 mm 5 mps 764 mmHg 87%

    22 February, Thursday

    Time Temperature Precipitation Wind Pressure Humidity
    00:00 +22°C° 0.1 mm 5 mps 764 mmHg 87%
    01:00 +22°C° 0.1 mm 5 mps 764 mmHg 87%
    02:00 +22°C° 0.1 mm 5 mps 763 mmHg 87%
    03:00 +21°C° 0.1 mm 5 mps 763 mmHg 86%
    04:00 +21°C° 0.1 mm 5 mps 763 mmHg 86%
    05:00 +21°C° 0.1 mm 5 mps 764 mmHg 84%
    06:00 +21°C° 0.1 mm 5 mps 764 mmHg 83%
    07:00 +22°C° 0.1 mm 5 mps 764 mmHg 81%
    08:00 +25°C° 0 mm 5 mps 765 mmHg 73%
    09:00 +27°C° 0 mm 5 mps 765 mmHg 66%
    10:00 +29°C° 0 mm 6 mps 765 mmHg 58%
    11:00 +29°C° 0.1 mm 6 mps 764 mmHg 56%
    12:00 +30°C° 0.1 mm 6 mps 763 mmHg 53%
    13:00 +30°C° 0.1 mm 6 mps 763 mmHg 51%
    14:00 +30°C° 0.1 mm 6 mps 762 mmHg 54%
    15:00 +29°C° 0.1 mm 6 mps 762 mmHg 56%
    16:00 +29°C° 0.1 mm 6 mps 762 mmHg 59%
    17:00 +27°C° 0.1 mm 5 mps 762 mmHg 65%
    18:00 +26°C° 0.1 mm 5 mps 762 mmHg 72%
    19:00 +23°C° 0.1 mm 5 mps 763 mmHg 79%
    20:00 +23°C° 0.1 mm 5 mps 763 mmHg 80%
    21:00 +22°C° 0.1 mm 5 mps 763 mmHg 82%
    22:00 +22°C° 0.1 mm 5 mps 763 mmHg 84%
    23:00 +22°C° 0.1 mm 4 mps 763 mmHg 85%

    23 February, Friday

    Time Temperature Precipitation Wind Pressure Humidity
    00:00 +22°C° 0.1 mm 4 mps 763 mmHg 86%
    01:00 +21°C° 0.1 mm 4 mps 762 mmHg 86%
    02:00 +21°C° 0.2 mm 4 mps 762 mmHg 87%
    03:00 +21°C° 0.2 mm 4 mps 762 mmHg 87%
    04:00 +21°C° 0.2 mm 4 mps 762 mmHg 88%
    05:00 +21°C° 0.2 mm 4 mps 762 mmHg 87%
    06:00 +21°C° 0.2 mm 4 mps 762 mmHg 86%
    07:00 +22°C° 0.2 mm 4 mps 763 mmHg 85%
    08:00 +23°C° 0.2 mm 5 mps 763 mmHg 78%
    09:00 +26°C° 0.2 mm 5 mps 763 mmHg 72%
    10:00 +27°C° 0.2 mm 5 mps 763 mmHg 66%
    11:00 +28°C° 0.4 mm 5 mps 763 mmHg 64%
    12:00 +28°C° 0.4 mm 5 mps 762 mmHg 63%
    13:00 +28°C° 0.4 mm 5 mps 761 mmHg 61%
    14:00 +28°C° 0.2 mm 5 mps 761 mmHg 62%
    15:00 +28°C° 0.2 mm 5 mps 760 mmHg 62%
    16:00 +28°C° 0.2 mm 5 mps 760 mmHg 62%
    17:00 +27°C° 0.1 mm 5 mps 760 mmHg 68%
    18:00 +25°C° 0.1 mm 5 mps 761 mmHg 74%
    19:00 +23°C° 0.1 mm 4 mps 761 mmHg 81%
    20:00 +22°C° 0.1 mm 4 mps 761 mmHg 82%
    21:00 +22°C° 0.1 mm 4 mps 762 mmHg 83%
    22:00 +22°C° 0.1 mm 4 mps 762 mmHg 85%
    23:00 +21°C° 0 mm 4 mps 762 mmHg 86%

    24 February, Saturday

    Time Temperature Precipitation Wind Pressure Humidity
    00:00 +21°C° 0 mm 4 mps 761 mmHg 86%
    01:00 +21°C° 0 mm 4 mps 761 mmHg 87%
    02:00 +21°C° 0 mm 4 mps 761 mmHg 87%
    03:00 +21°C° 0 mm 4 mps 760 mmHg 87%
    04:00 +20°C° 0 mm 4 mps 760 mmHg 88%
    05:00 +21°C° 0.1 mm 4 mps 761 mmHg 87%
    06:00 +21°C° 0.1 mm 4 mps 761 mmHg 86%
    07:00 +22°C° 0.1 mm 4 mps 761 mmHg 85%
    08:00 +23°C° 0.3 mm 4 mps 762 mmHg 78%
    09:00 +26°C° 0.3 mm 4 mps 762 mmHg 72%
    10:00 +28°C° 0.3 mm 4 mps 762 mmHg 66%
    11:00 +28°C° 0.5 mm 4 mps 761 mmHg 63%
    12:00 +29°C° 0.5 mm 4 mps 761 mmHg 60%
    13:00 +30°C° 0.5 mm 4 mps 760 mmHg 57%
    14:00 +30°C° 0.2 mm 4 mps 760 mmHg 57%
    15:00 +29°C° 0.2 mm 4 mps 759 mmHg 58%
    16:00 +29°C° 0.2 mm 4 mps 759 mmHg 59%
    17:00 +27°C° 0.3 mm 4 mps 759 mmHg 66%
    18:00 +26°C° 0.3 mm 4 mps 760 mmHg 74%
    19:00 +23°C° 0.3 mm 4 mps 760 mmHg 81%
    20:00 +23°C° 0.1 mm 4 mps 760 mmHg 84%
    21:00 +22°C° 0.1 mm 4 mps 761 mmHg 86%
    22:00 +22°C° 0.1 mm 4 mps 761 mmHg 88%
    23:00 +21°C° 0.2 mm 4 mps 761 mmHg 88%
    Show more